Regional Weather Roundup
Issued by NWS

Home | Current Version | Previous Version | Text Only | Print | Product List | Glossary Off
Versions: 1 2 3 4 5 6 7 8 9 10 11 12 13 14 15 16 17 18 19 20 21 22 23 24 25 26 27 28 29 30 31 32 33 34 35 36 37 38 39 40 41 42 43 44 45 46 47 48 49 50

000
ASUS43 KLOT 220010
RWRIL

ILLINOIS REGIONAL WEATHER ROUNDUP
NATIONAL WEATHER SERVICE CHICAGO/ROMEOVILLE IL
700 PM CDT THU AUG 21 2014

NOTE: "FAIR" INDICATES FEW OR NO CLOUDS BELOW 12,000 FEET WITH NO
SIGNIFICANT WEATHER AND/OR OBSTRUCTIONS TO VISIBILITY.

* THESE STATIONS ARE NOT UNDER NWS QUALITY CONTROL. THEY ALSO MAY NOT
  REPORT WEATHER SUCH AS PRECIPITATION OR FOG.

ILZ001-002-007-009-015-016-024-220100-
NORTHWEST ILLINOIS

CITY           SKY/WX    TMP DP  RH WIND       PRES   REMARKS
MOLINE         MOCLDY    82  74  76 SE3       29.88F HX  88
6HR MIN TEMP:  81; 6HR MAX TEMP:  87; 6HR PCP: TRACE;

STERLING*      CLOUDY    79  73  83 SW3       29.87F HX  82
SAVANNA*       CLOUDY    78  73  83 S8        29.86F HX  81
$$

ILZ003-004-008-010-011-017-018-220100-
NORTH CENTRAL ILLINOIS

CITY           SKY/WX    TMP DP  RH WIND       PRES   REMARKS
ROCKFORD       CLOUDY    77  73  87 S3        29.91S
6HR MIN TEMP:  75; 6HR MAX TEMP:  78; 6HR PCP:  0.29;

FREEPORT*      CLOUDY    75  73  94 CALM      29.91F
ROCHELLE*      CLOUDY    76  73  92 S5        29.90F
DE KALB*       MOCLDY    75  73  93 S5        29.92R
PERU*          CLOUDY    81  73  76 SW6       29.90S HX  86
$$

ILZ005-006-012>014-019>023-220100-
NORTHEAST ILLINOIS

CITY           SKY/WX    TMP DP  RH WIND       PRES   REMARKS
CHICAGO-OHARE  MOCLDY    76  70  82 SE10      29.90S
6HR MIN TEMP:  74; 6HR MAX TEMP:  79; 6HR PCP:  0.63;

CHICAGO-MIDWAY MOCLDY    78  74  87 SE8       29.90S HX  81
6HR MIN TEMP:  77; 6HR MAX TEMP:  83; 6HR PCP:  0.69;

AURORA         MOCLDY    77  73  87 CALM      29.91R FOG
6HR MIN TEMP:  76; 6HR MAX TEMP:  82; 6HR PCP:  0.30;

LANSING*       MOCLDY    74  71  89 SE6       29.91F
JOLIET*        MOCLDY    76  72  87 CALM      29.91S
WAUKEGAN       CLOUDY    73  71  93 SE8       29.90S FOG
6HR MIN TEMP:  72; 6HR MAX TEMP:  74; 6HR PCP:  0.28;

DUPAGE AIRPORT PTCLDY    77  74  90 S6        29.90S
6HR MIN TEMP:  75; 6HR MAX TEMP:  81; 6HR PCP:  0.17;

KANKAKEE*      CLOUDY    78  74  87 NE7       29.93R HX  81
WHEELING       PTCLDY    77  73  87 SE7       29.91S
6HR MIN TEMP:  74; 6HR MAX TEMP:  78; 6HR PCP:  0.38;

MORRIS*        MOCLDY    78  74  86 SE3       29.90S HX  81
ROMEOVILLE*    MOCLDY    76  74  95 SE5       29.90S
NORTHERLY ISL    N/A     73  71  93 S7          N/A
$$

LMZ740>746-220100-
SOUTHERN LAKE MICHIGAN

STATION/POSITION SKY/WX   TEMP    WIND        PRES    VSBY  WAVE
                          AIR SEA DIR/SP/G                  HT/PER
                          (F)     (DEG/KT/KT) (MB)    (MI)  (FT/S)
SOUTHERN BUOY              70 69  140/  4/  6 1013.3S         1
WAUKEGAN HARBOR            73     150/  8/  9   N/A
HARRISON CRIB              72     160/ 10/ 12   N/A
BURNHAM HARBOR             72     150/  6/ 10   N/A
CALUMET HARBOR             74     140/  4/  7 1011.3F
BURNS HARBOR               76     140/  6/  9   N/A
MICHIGAN CITY              75     120/  9/ 14   N/A
MICHIGAN CITY 6N           74 71  150/  8/ 10   N/A           1
ST. JOSEPH                 74 71  120/  6/  8   N/A           1
$$

ILZ025>027-034>036-040-047-049-050-058-095>099-220100-
WEST-CENTRAL ILLINOIS

CITY           SKY/WX    TMP DP  RH WIND       PRES   REMARKS
QUINCY         CLEAR     89  76  65 CALM      29.90S HX 100
GALESBURG*     PTCLDY    83  76  77 SE3       29.90F HX  91
MACOMB*        CLEAR     84  79  83 S3        29.92F HX  96
JACKSONVILLE*  CLEAR     89  78  71 S5        29.92F HX 103
PITTSFIELD*    PTCLDY    88  78  70 CALM      29.92S HX 101
$$

ILZ028>032-037-038-041>044-048-051>054-059>061-220100-
CENTRAL ILLINOIS

CITY           SKY/WX    TMP DP  RH WIND       PRES   REMARKS
PONTIAC        CLOUDY    84  77  79 CALM      29.91F HX  94
DECATUR        PTCLDY    86  77  74 SW9       29.93F HX  97
PEORIA         CLEAR     86  75  69 S5        29.90F HX  95
6HR MIN TEMP:  85; 6HR MAX TEMP:  89;

LACON*         PTCLDY    83  74  72 CALM      29.89F HX  90
LINCOLN*       MOCLDY    87  76  70 S5        29.89S HX  97
SPRINGFIELD    PTCLDY    88  77  69 SW3       29.92S HX 100
6HR MIN TEMP:  86; 6HR MAX TEMP:  90;

TAYLORVILLE    PTCLDY    82  77  83 S5        29.93S HX  91
$$

ILZ033-039-045-046-055>057-062-063-220100-
EAST-CENTRAL ILLINOIS

CITY           SKY/WX    TMP DP  RH WIND       PRES   REMARKS
CHAMPAIGN      PTCLDY    84  77  79 SW8       29.94S HX  94
DANVILLE*      RAIN      82  77  85 S5        29.91F HX  89
RANTOUL*       MOCLDY    85  75  74 SW6       29.95S HX  93
MATTOON        CLEAR     83  75  77 SW3       29.94F HX  90
PARIS*         CLEAR     83  77  80 SW8       29.96R HX  92
$$

ILZ079-100>102-220100-
SOUTHWEST ILLINOIS

CITY           SKY/WX    TMP DP  RH WIND       PRES   REMARKS
ALTON          CLEAR     88  79  74 SE7       29.91F HX 102
BELLEVILLE     MOCLDY    87  79  77 E5        29.91F HX 102
CAHOKIA*       MOCLDY    89  78  70 SE6       29.91S HX 103
SPARTA*        MOCLDY    86  76  71 S9        29.94F HX  96
$$

ILZ064>066-069>071-074>076-080>082-084>086-088>090-092>094-220100-
SOUTH-CENTRAL ILLINOIS

CITY           SKY/WX    TMP DP  RH WIND       PRES   REMARKS
CARBONDALE     CLOUDY    85  75  72 S12       29.96F HX  93
6HR MIN TEMP:  85; 6HR MAX TEMP:  89;

CAIRO*         PTCLDY    87  74  66 S6        29.97F HX  95
MARION         CLOUDY    86  77  74 S10       29.97F HX  97
MT. VERNON     CLOUDY    84  73  70 S7        29.96F HX  91
CENTRALIA*     MOCLDY    85  73  68 S7        29.95F HX  92
SALEM*         MOCLDY    86  77  75 S7        29.95F HX  96
METROPOLIS*    MOCLDY    86  70  60 S7        29.98F HX  90
$$

ILZ067-068-072-073-078-083-087-091-220100-
SOUTHEAST ILLINOIS

CITY           SKY/WX    TMP DP  RH WIND       PRES   REMARKS
LAWRENCEVILLE  PTCLDY    85  76  74 S8        29.96F HX  94
FLORA*         PTCLDY    83  75  75 S8        29.95F HX  90
FAIRFIELD*     CLOUDY    84  79  84 S5        29.95F HX  96
HARRISBURG*    CLOUDY    85  75  73 S5        29.98F HX  93
ROBINSON*      CLEAR     85  78  78 SW5       29.96S HX  97
CARMI*         CLOUDY    84  79  84 S3        29.96F HX  96
$$

ABBREVIATIONS USED IN REMARKS
   TC - TEMPERATURE IN CELSIUS
  WCI - WIND CHILL INDEX
   HX - HEAT INDEX
  VSB - VISIBILITY
$$



USA.gov is the U.S. government's official web portal to all federal, state and local government web resources and services.